Time,TemperatureF,DewpointF,PressureIn,WindDirection,WindDirectionDegrees,WindSpeedMPH,WindSpeedGustMPH,Humidity,HourlyPrecipIn,Conditions,Clouds,dailyrainin,SoftwareType,DateUTC
2013-05-10 00:00:00,60.4,53.0,30.20,NE,46,0.0,0.0,76,0.00,,,0.00,weatherlink.com 1.10,2013-05-10 07:00:00,
2013-05-10 00:15:00,60.1,53.0,30.20,NE,51,1.0,1.0,77,0.00,,,0.00,weatherlink.com 1.10,2013-05-10 07:15:00,
2013-05-10 00:30:00,59.0,53.0,30.21,ENE,74,0.0,1.0,79,0.00,,,0.00,weatherlink.com 1.10,2013-05-10 07:30:00,
2013-05-10 00:45:00,58.6,52.0,30.22,NE,46,0.0,0.0,78,0.00,,,0.00,weatherlink.com 1.10,2013-05-10 07:45:00,
2013-05-10 01:00:00,57.9,52.0,30.23,NE,47,0.0,0.0,80,0.00,,,0.00,weatherlink.com 1.10,2013-05-10 08:00:00,
2013-05-10 01:15:00,56.5,51.0,30.23,NE,46,0.0,0.0,83,0.00,,,0.00,weatherlink.com 1.10,2013-05-10 08:15:00,
2013-05-10 01:30:00,55.2,51.0,30.23,NE,46,0.0,0.0,85,0.00,,,0.00,weatherlink.com 1.10,2013-05-10 08:30:00,
2013-05-10 01:45:00,54.9,51.0,30.23,NE,46,0.0,0.0,87,0.00,,,0.00,weatherlink.com 1.10,2013-05-10 08:45:00,
2013-05-10 02:00:00,54.4,51.0,30.24,NE,46,0.0,0.0,89,0.00,,,0.00,weatherlink.com 1.10,2013-05-10 09:00:00,
2013-05-10 02:15:00,53.7,51.0,30.24,NE,46,0.0,0.0,89,0.00,,,0.00,weatherlink.com 1.10,2013-05-10 09:15:00,
2013-05-10 02:30:00,54.1,52.0,30.24,NE,46,0.0,0.0,91,0.00,,,0.00,weatherlink.com 1.10,2013-05-10 09:30:00,
2013-05-10 02:46:00,53.6,51.0,30.24,NE,46,0.0,0.0,90,0.00,,,0.00,weatherlink.com 1.10,2013-05-10 09:46:00,
2013-05-10 03:01:00,53.9,51.0,30.24,WNW,290,0.0,1.0,90,0.00,,,0.00,weatherlink.com 1.10,2013-05-10 10:01:00,
2013-05-10 03:16:00,53.2,50.0,30.24,WNW,290,0.0,0.0,90,0.00,,,0.00,weatherlink.com 1.10,2013-05-10 10:16:00,
2013-05-10 03:31:00,52.8,51.0,30.25,WNW,290,0.0,0.0,92,0.00,,,0.00,weatherlink.com 1.10,2013-05-10 10:31:00,
2013-05-10 03:46:00,52.4,50.0,30.25,WNW,290,0.0,1.0,92,0.00,,,0.00,weatherlink.com 1.10,2013-05-10 10:46:00,
2013-05-10 04:01:00,51.8,50.0,30.25,WNW,290,0.0,0.0,93,0.00,,,0.00,weatherlink.com 1.10,2013-05-10 11:01:00,
2013-05-10 04:16:00,52.1,51.0,30.25,WNW,290,0.0,0.0,94,0.00,,,0.00,weatherlink.com 1.10,2013-05-10 11:16:00,
2013-05-10 04:31:00,51.5,50.0,30.25,WNW,290,0.0,0.0,94,0.00,,,0.00,weatherlink.com 1.10,2013-05-10 11:31:00,
2013-05-10 04:46:00,51.4,50.0,30.24,WSW,253,0.0,0.0,94,0.00,,,0.00,weatherlink.com 1.10,2013-05-10 11:46:00,
2013-05-10 05:01:00,51.1,50.0,30.25,WSW,253,0.0,0.0,94,0.00,,,0.00,weatherlink.com 1.10,2013-05-10 12:01:00,
2013-05-10 05:16:00,50.7,49.0,30.25,WSW,253,0.0,0.0,95,0.00,,,0.00,weatherlink.com 1.10,2013-05-10 12:16:00,
2013-05-10 05:31:00,50.6,49.0,30.25,WSW,253,0.0,0.0,94,0.00,,,0.00,weatherlink.com 1.10,2013-05-10 12:31:00,
2013-05-10 05:46:00,50.1,49.0,30.25,WSW,253,0.0,0.0,95,0.00,,,0.00,weatherlink.com 1.10,2013-05-10 12:46:00,
2013-05-10 06:01:00,50.1,49.0,30.25,WSW,253,0.0,0.0,96,0.00,,,0.00,weatherlink.com 1.10,2013-05-10 13:01:00,
2013-05-10 06:16:00,49.9,49.0,30.26,WSW,253,0.0,0.0,96,0.00,,,0.00,weatherlink.com 1.10,2013-05-10 13:16:00,
2013-05-10 06:31:00,50.1,49.0,30.26,WSW,253,0.0,0.0,96,0.00,,,0.00,weatherlink.com 1.10,2013-05-10 13:31:00,
2013-05-10 06:46:00,50.8,50.0,30.27,WSW,253,0.0,0.0,97,0.00,,,0.00,weatherlink.com 1.10,2013-05-10 13:46:00,
2013-05-10 07:01:00,51.7,51.0,30.27,WSW,253,0.0,0.0,96,0.00,,,0.00,weatherlink.com 1.10,2013-05-10 14:01:00,
2013-05-10 07:16:00,52.7,52.0,30.27,NNE,28,0.0,1.0,96,0.00,,,0.00,weatherlink.com 1.10,2013-05-10 14:16:00,
2013-05-10 07:31:00,54.4,53.0,30.27,NNE,26,0.0,1.0,93,0.00,,,0.00,weatherlink.com 1.10,2013-05-10 14:31:00,
2013-05-10 07:46:00,57.2,54.0,30.27,NNE,22,1.0,1.0,88,0.00,,,0.00,weatherlink.com 1.10,2013-05-10 14:46:00,
2013-05-10 08:01:00,59.0,54.0,30.28,NE,44,0.0,1.0,83,0.00,,,0.00,weatherlink.com 1.10,2013-05-10 15:01:00,
2013-05-10 08:16:00,59.6,54.0,30.28,NNE,26,0.0,3.0,82,0.00,,,0.00,weatherlink.com 1.10,2013-05-10 15:16:00,
2013-05-10 08:31:00,61.2,55.0,30.28,East,96,0.0,2.0,79,0.00,,,0.00,weatherlink.com 1.10,2013-05-10 15:31:00,
2013-05-10 08:46:00,62.2,55.0,30.28,North,350,0.0,1.0,76,0.00,,,0.00,weatherlink.com 1.10,2013-05-10 15:46:00,
2013-05-10 09:01:00,64.2,55.0,30.28,SSW,207,0.0,2.0,73,0.00,,,0.00,weatherlink.com 1.10,2013-05-10 16:01:00,
2013-05-10 09:16:00,65.1,55.0,30.27,WSW,257,0.0,2.0,70,0.00,,,0.00,weatherlink.com 1.10,2013-05-10 16:16:00,
2013-05-10 09:31:00,66.1,55.0,30.27,NE,54,0.0,2.0,68,0.00,,,0.00,weatherlink.com 1.10,2013-05-10 16:31:00,
2013-05-10 09:46:00,67.6,55.0,30.27,SW,214,0.0,3.0,65,0.00,,,0.00,weatherlink.com 1.10,2013-05-10 16:46:00,
2013-05-10 10:01:00,68.5,55.0,30.27,SE,146,1.0,2.0,63,0.00,,,0.00,weatherlink.com 1.10,2013-05-10 17:01:00,
2013-05-10 10:16:00,69.7,56.0,30.26,East,96,0.0,3.0,61,0.00,,,0.00,weatherlink.com 1.10,2013-05-10 17:16:00,
2013-05-10 10:31:00,69.8,55.0,30.26,NW,309,0.0,5.0,59,0.00,,,0.00,weatherlink.com 1.10,2013-05-10 17:31:00,
2013-05-10 10:46:00,69.9,55.0,30.25,SW,224,0.0,4.0,60,0.00,,,0.00,weatherlink.com 1.10,2013-05-10 17:46:00,
2013-05-10 11:01:00,71.5,56.0,30.25,SSE,160,0.0,4.0,58,0.00,,,0.00,weatherlink.com 1.10,2013-05-10 18:01:00,
2013-05-10 11:17:00,72.0,57.0,30.25,SE,129,3.0,5.0,60,0.00,,,0.00,weatherlink.com 1.10,2013-05-10 18:17:00,
2013-05-10 11:32:00,73.7,58.0,30.25,SW,224,4.0,4.0,58,0.00,,,0.00,weatherlink.com 1.10,2013-05-10 18:32:00,
2013-05-10 11:47:00,75.8,59.0,30.25,ESE,122,0.0,4.0,56,0.00,,,0.00,weatherlink.com 1.10,2013-05-10 18:47:00,
2013-05-10 12:02:00,76.5,59.0,30.24,ESE,113,2.0,3.0,54,0.00,,,0.00,weatherlink.com 1.10,2013-05-10 19:02:00,
2013-05-10 12:17:00,76.5,59.0,30.24,ENE,59,2.0,4.0,55,0.00,,,0.00,weatherlink.com 1.10,2013-05-10 19:17:00,
2013-05-10 12:32:00,77.6,61.0,30.23,NW,311,0.0,4.0,56,0.00,,,0.00,weatherlink.com 1.10,2013-05-10 19:32:00,
2013-05-10 12:47:00,79.5,58.0,30.23,SSE,165,0.0,3.0,48,0.00,,,0.00,weatherlink.com 1.10,2013-05-10 19:47:00,
2013-05-10 13:02:00,80.3,58.0,30.22,South,175,1.0,3.0,47,0.00,,,0.00,weatherlink.com 1.10,2013-05-10 20:02:00,
2013-05-10 13:17:00,80.7,58.0,30.22,NNE,30,1.0,3.0,46,0.00,,,0.00,weatherlink.com 1.10,2013-05-10 20:17:00,
2013-05-10 13:32:00,80.7,57.0,30.22,WNW,298,2.0,3.0,44,0.00,,,0.00,weatherlink.com 1.10,2013-05-10 20:32:00,
2013-05-10 13:47:00,81.7,55.0,30.21,North,6,2.0,4.0,40,0.00,,,0.00,weatherlink.com 1.10,2013-05-10 20:47:00,
2013-05-10 14:02:00,81.5,55.0,30.21,NW,315,1.0,6.0,40,0.00,,,0.00,weatherlink.com 1.10,2013-05-10 21:02:00,
2013-05-10 14:17:00,81.9,53.0,30.21,North,1,0.0,5.0,37,0.00,,,0.00,weatherlink.com 1.10,2013-05-10 21:17:00,
2013-05-10 14:32:00,83.6,55.0,30.21,ENE,75,1.0,5.0,37,0.00,,,0.00,weatherlink.com 1.10,2013-05-10 21:32:00,
2013-05-10 14:47:00,82.5,54.0,30.20,NNE,19,2.0,5.0,37,0.00,,,0.00,weatherlink.com 1.10,2013-05-10 21:47:00,
2013-05-10 15:02:00,83.4,56.0,30.20,NE,53,1.0,4.0,39,0.00,,,0.00,weatherlink.com 1.10,2013-05-10 22:02:00,
2013-05-10 15:17:00,82.9,55.0,30.20,NE,34,1.0,4.0,38,0.00,,,0.00,weatherlink.com 1.10,2013-05-10 22:17:00,
2013-05-10 15:32:00,83.3,54.0,30.20,NW,319,0.0,5.0,37,0.00,,,0.00,weatherlink.com 1.10,2013-05-10 22:32:00,
2013-05-10 15:47:00,83.9,53.0,30.20,SW,222,1.0,2.0,35,0.00,,,0.00,weatherlink.com 1.10,2013-05-10 22:47:00,
2013-05-10 16:02:00,83.1,51.0,30.19,NE,41,2.0,5.0,33,0.00,,,0.00,weatherlink.com 1.10,2013-05-10 23:02:00,
2013-05-10 16:17:00,82.9,51.0,30.19,NNE,17,3.0,3.0,33,0.00,,,0.00,weatherlink.com 1.10,2013-05-10 23:17:00,
2013-05-10 16:32:00,82.5,50.0,30.18,NNE,26,2.0,4.0,32,0.00,,,0.00,weatherlink.com 1.10,2013-05-10 23:32:00,
2013-05-10 16:47:00,82.4,51.0,30.18,NE,39,0.0,3.0,33,0.00,,,0.00,weatherlink.com 1.10,2013-05-10 23:47:00,
2013-05-10 17:02:00,81.9,52.0,30.18,NE,51,0.0,3.0,35,0.00,,,0.00,weatherlink.com 1.10,2013-05-11 00:02:00,
2013-05-10 17:17:00,83.7,52.0,30.18,NNE,12,1.0,2.0,34,0.00,,,0.00,weatherlink.com 1.10,2013-05-11 00:17:00,
2013-05-10 17:32:00,83.0,53.0,30.18,NNE,32,0.0,3.0,36,0.00,,,0.00,weatherlink.com 1.10,2013-05-11 00:32:00,
2013-05-10 17:47:00,83.2,54.0,30.18,NE,36,2.0,3.0,37,0.00,,,0.00,weatherlink.com 1.10,2013-05-11 00:47:00,
2013-05-10 18:02:00,82.7,55.0,30.18,WNW,295,1.0,4.0,39,0.00,,,0.00,weatherlink.com 1.10,2013-05-11 01:02:00,
2013-05-10 18:17:00,81.9,57.0,30.17,NE,44,1.0,3.0,43,0.00,,,0.00,weatherlink.com 1.10,2013-05-11 01:17:00,
2013-05-10 18:34:00,81.8,57.0,30.18,East,79,1.0,3.0,43,0.00,,,0.00,weatherlink.com 1.10,2013-05-11 01:34:00,
2013-05-10 18:48:00,82.2,57.0,30.18,NE,51,2.0,2.0,43,0.00,,,0.00,weatherlink.com 1.10,2013-05-11 01:48:00,
2013-05-10 19:03:00,80.3,57.0,30.18,NE,39,0.0,2.0,45,0.00,,,0.00,weatherlink.com 1.10,2013-05-11 02:03:00,
2013-05-10 19:18:00,78.9,59.0,30.19,SW,224,1.0,1.0,50,0.00,,,0.00,weatherlink.com 1.10,2013-05-11 02:18:00,
2013-05-10 19:33:00,75.9,58.0,30.19,ESE,113,0.0,1.0,54,0.00,,,0.00,weatherlink.com 1.10,2013-05-11 02:33:00,
2013-05-10 19:48:00,73.8,57.0,30.20,East,92,0.0,1.0,57,0.00,,,0.00,weatherlink.com 1.10,2013-05-11 02:48:00,
2013-05-10 20:03:00,72.0,56.0,30.21,West,278,0.0,2.0,58,0.00,,,0.00,weatherlink.com 1.10,2013-05-11 03:03:00,
2013-05-10 20:18:00,70.2,56.0,30.21,NNE,20,0.0,1.0,61,0.00,,,0.00,weatherlink.com 1.10,2013-05-11 03:18:00,
2013-05-10 20:33:00,68.6,55.0,30.21,NNE,20,0.0,1.0,62,0.00,,,0.00,weatherlink.com 1.10,2013-05-11 03:33:00,
2013-05-10 20:48:00,67.2,55.0,30.22,NNE,20,0.0,0.0,65,0.00,,,0.00,weatherlink.com 1.10,2013-05-11 03:48:00,
2013-05-10 21:03:00,66.1,54.0,30.23,NNE,25,0.0,1.0,66,0.00,,,0.00,weatherlink.com 1.10,2013-05-11 04:03:00,
2013-05-10 21:18:00,65.1,53.0,30.23,ESE,103,0.0,1.0,66,0.00,,,0.00,weatherlink.com 1.10,2013-05-11 04:18:00,
2013-05-10 21:33:00,64.6,53.0,30.24,ESE,113,0.0,1.0,67,0.00,,,0.00,weatherlink.com 1.10,2013-05-11 04:33:00,
2013-05-10 21:48:00,64.6,53.0,30.25,East,98,2.0,5.0,66,0.00,,,0.00,weatherlink.com 1.10,2013-05-11 04:48:00,
2013-05-10 22:03:00,64.3,53.0,30.25,East,80,0.0,3.0,66,0.00,,,0.00,weatherlink.com 1.10,2013-05-11 05:03:00,
2013-05-10 22:18:00,62.4,52.0,30.26,ESE,120,1.0,5.0,68,0.00,,,0.00,weatherlink.com 1.10,2013-05-11 05:18:00,
2013-05-10 22:33:00,61.1,51.0,30.26,WNW,288,0.0,0.0,70,0.00,,,0.00,weatherlink.com 1.10,2013-05-11 05:33:00,
2013-05-10 22:48:00,59.9,51.0,30.26,South,169,0.0,1.0,73,0.00,,,0.00,weatherlink.com 1.10,2013-05-11 05:48:00,
2013-05-10 23:03:00,59.1,51.0,30.26,WNW,284,0.0,1.0,74,0.00,,,0.00,weatherlink.com 1.10,2013-05-11 06:03:00,
2013-05-10 23:18:00,58.2,51.0,30.26,WNW,283,0.0,1.0,76,0.00,,,0.00,weatherlink.com 1.10,2013-05-11 06:18:00,
2013-05-10 23:33:00,57.2,50.0,30.27,SE,131,0.0,2.0,78,0.00,,,0.00,weatherlink.com 1.10,2013-05-11 06:33:00,
2013-05-10 23:48:00,56.7,50.0,30.27,SE,129,0.0,0.0,79,0.00,,,0.00,weatherlink.com 1.10,2013-05-11 06:48:00,